This is the latest recevied weather packets stored in our database for station/object GBTWP-2. If no packets are shown the sender has not sent any weather packets the latest 10 day(s).
| Time | Temp. | Humidity | Pressure | Rain* | Wind** | Luminosity | Snow |
|---|---|---|---|---|---|---|---|
| 1777153802 | 8.89° C | 83% | 1018.7 hPa | 0 mm | - | 60 W/m² | - |
| 1777153502 | 8.89° C | 82% | 1018.6 hPa | 0 mm | - | 63 W/m² | - |
| 1777153202 | 8.89° C | 82% | 1018.8 hPa | 0 mm | - | 72 W/m² | - |
| 1777152902 | 8.89° C | 83% | 1018.5 hPa | 0 mm | - | 58 W/m² | - |
| 1777152302 | 8.89° C | 83% | 1018.2 hPa | 0 mm | - | 52 W/m² | - |
| 1777152002 | 8.89° C | 83% | 1018.3 hPa | 0 mm | - | 50 W/m² | - |
| 1777151102 | 9.44° C | 84% | 1018.2 hPa | 0 mm | - | 48 W/m² | - |
| 1777150802 | 9.44° C | 83% | 1018 hPa | 0 mm | - | 51 W/m² | - |
| 1777149602 | 10° C | 83% | 1018 hPa | 0 mm | - | 65 W/m² | - |
| 1777149302 | 10° C | 82% | 1018 hPa | 0 mm | - | 72 W/m² | - |
| 1777148702 | 10° C | 83% | 1017.9 hPa | 0 mm | - | 82 W/m² | - |
| 1777148102 | 10° C | 83% | 1017.8 hPa | 0 mm | - | 90 W/m² | - |
| 1777147201 | 10° C | 83% | 1017.8 hPa | 0 mm | - | 78 W/m² | - |
| 1777146902 | 10° C | 83% | 1017.7 hPa | 0 mm | - | 88 W/m² | - |
| 1777146602 | 10° C | 82% | 1017.8 hPa | 0 mm | - | 77 W/m² | - |
| 1777146002 | 10° C | 83% | 1017.8 hPa | 0 mm | - | 92 W/m² | - |
| 1777145402 | 10° C | 82% | 1017.6 hPa | 0 mm | - | 88 W/m² | - |
| 1777144802 | 10° C | 82% | 1017.5 hPa | 0 mm | - | 85 W/m² | - |
| 1777144502 | 10° C | 82% | 1017.4 hPa | 0 mm | - | 96 W/m² | - |
| 1777144202 | 10° C | 81% | 1017.3 hPa | 0 mm | - | 107 W/m² | - |
| 1777143902 | 10° C | 82% | 1017.5 hPa | 0 mm | - | 101 W/m² | - |
| 1777143002 | 10° C | 83% | 1017.4 hPa | 0 mm | - | 93 W/m² | - |
| 1777142702 | 10° C | 84% | 1017.1 hPa | 0 mm | - | 96 W/m² | - |
| 1777142102 | 10° C | 84% | 1017 hPa | 0 mm | - | 101 W/m² | - |
| 1777141801 | 9.44° C | 84% | 1016.8 hPa | 0 mm | - | 115 W/m² | - |
* Rain latest hour (hover to see other rain measurements)
** Current wind speed in m/s (hover to see current wind gust speed)